Location: Lower Kingswood
(51.2667°N, 0.2167°W)
Time: 12:43:20
(UTC+00:00)

Meteor 2-17 Rocket - Pass Details

Date: 26 September 2023
Orbit: 935 x 956 km, 82.5° (Epoch: 29 November)

Event Time Altitude Azimuth Distance (km) Brightness Sun altitude
Exits shadow 03:04:27 65° 232° (SW) 1,033 4.3 -25.7°
Maximum altitude 03:05:13 73° 282° (WNW) 984 4.3 -25.6°
Drops below altitude 10° 03:11:20 10° 8° (N) 2,671 7.3 -24.8°
Sets 03:13:51 0° 10° (N) 3,623 8.1 -24.5°
